Мир-Башир

Azerbaijan     40˚19′58″N   46˚55′01″E
temp.,
°C
wind,
m/s
gust,
m/s
humid.,
%
clouds,
%
prec.,
mm/h
press.,
hPa
HPBL,
m
28 november, sat
sat2801:00+4˚ne119136 0.0 103425
04:00+4˚nw119122 0.0 103322
07:00+4˚nw228721 0.0 103326
10:00+7˚nne116552 0.0 1032255
13:00+9˚ne21589 0.0 1030935
16:00+10˚e115627 0.0 10291086
19:00+7˚se116979 0.0 102922
22:00+6˚w117461 0.0 103022
29 november, sun
sun2901:00+5˚wnw227455 0.0 102922
04:00+5˚wnw227045 0.0 102923
07:00+5˚wnw2269100 0.0 102823
10:00+7˚n0157100 0.0 1028145
13:00+10˚nnw3346100 0.0 1026754
16:00+10˚n3346100 0.0 1025713
19:00+9˚ene1153100 0.0 102651
22:00+7˚se2275100 0.6 1027151
30 november, mon
mon3001:00+7˚wsw2279100 0.8 1027132
04:00+8˚n2477100 1.0 1026213
07:00+7˚nw1273100 0.1 1026155
10:00+8˚sw1170100 0.1 1026223
13:00+10˚se336285 0.0 1024764
16:00+9˚se346988 0.0 1024545
19:00+8˚se357887 0.0 1024373
22:00+8˚se357792 0.0 1024548
1 december, tue
tue101:00+8˚sse3580100 0.0 1024447
04:00+8˚se2382100 0.0 1023363
07:00+7˚e2285100 0.0 1023155
10:00+7˚se228292 0.0 1023317
13:00+10˚se006974 0.0 1022671
16:00+10˚ssw216685 0.0 1021763
19:00+8˚s117722 0.0 102322
22:00+7˚ssw128021 0.0 102422
2 december, wed
wed201:00+6˚wsw118261 0.0 102422
04:00+6˚nw008537 0.0 102422
07:00+5˚sw00860 0.0 102522
10:00+8˚ne11740 0.0 1025142
13:00+10˚e22630 0.0 1024773
16:00+11˚ese115930 0.0 1023944
19:00+9˚se237399 0.0 102540
22:00+7˚sse228095 0.0 102622